Station NWPR1 - 8452660 - Newport, RI Image indicating link to RSS feed of recent meteorological observations for station NWPR1


Conditions at NWPR1 as of
(8:30 pm EDT on 04/20/2024)
0030 GMT on 04/21/2024:
     

Click on the graph icon in the table below to see a time series plot of the last five days of that observation.

5-day plot - Wind Direction Wind Direction (WDIR):WNW ( 290 deg true )
5-day plot - Wind Speed Wind Speed (WSPD): 4.1 kts
5-day plot - Wind Gust Wind Gust (GST): 8.9 kts
5-day plot - Atmospheric Pressure Atmospheric Pressure (PRES):29.86 in
5-day plot - Air Temperature Air Temperature (ATMP): 51.4 °F
5-day plot - Water Temperature Water Temperature (WTMP): 48.7 °F
5-day plot - Wind Chill Wind Chill (CHILL): 50.0 °F
5-day plot - Wind Speed at 10 Meters Wind Speed at 10 meters (WSPD10M): 3.9 kts
5-day plot - Wind Speed at 20 Meters Wind Speed at 20 meters (WSPD20M): 5.8 kts
5-day plot -  Wind Speed, Wind Gust and Atmospheric Pressure Combined plot of Wind Speed, Gust, and Air Pressure
NOS Water Level Observation Network Water Level
Previous observations
TIME
(EDT)
5-day plot - Wind Direction
WDIR
 
5-day plot - Wind Speed
WSPD
kts
5-day plot - Wind Gust
GST
kts
5-day plot - Wave Height
WVHT
ft
5-day plot - Dominant Wave Period
DPD
sec
5-day plot - Average Wave Period
APD
sec
5-day plot - Mean Wave Direction
MWD
 
5-day plot - Atmospheric Pressure
PRES
in
5-day plot - Pressure Tendency
PTDY
in
5-day plot - Air Temperature
ATMP
°F
5-day plot - Water Temperature
WTMP
°F
5-day plot - Dew Point
DEWP
°F
5-day plot - Salinity
SAL
psu
5-day plot - Visibility
VIS
nmi
5-day plot - Tide (above MLLW)
TIDE
ft
2024-04-20 08:24 pm NW 6.0 8.0----29.86- 51.1 48.7----
2024-04-20 08:18 pmNNW 1.9 1.9------ 49.8 48.7----
2024-04-20 08:12 pm- 0.0 2.9------ 49.8 48.7----
2024-04-20 08:06 pmSSE 2.9 4.1------ 49.8 48.7----
2024-04-20 08:00 pmSSW 4.1 5.1----29.83+0.02 50.2 48.6----
2024-04-20 07:54 pm SW 5.1 6.0----29.84- 50.4 48.6----
2024-04-20 07:48 pm SW 4.1 6.0----29.83-- 48.6----
2024-04-20 07:42 pm NW 1.9 2.9----29.84-- 48.4----
2024-04-20 07:36 pm W 1.0 4.1----29.83-- 48.4----
2024-04-20 07:30 pmWSW 4.1 8.9----29.83- 49.6 48.4----
2024-04-20 07:24 pm SW 6.0 8.9----29.82- 49.5 48.2----
2024-04-20 07:00 pmSSW 11.1 12.0----29.82+0.00 49.1 47.8----
2024-04-20 06:54 pmSSW 11.1 13.0----29.82- 49.3 47.5----
2024-04-20 06:48 pmSSW 11.1 13.0----29.81- 49.5 47.3----
2024-04-20 06:42 pmSSW 11.1 14.0----29.81- 49.5 47.3----
2024-04-20 06:36 pmSSW 11.1 13.0----29.81- 49.6 47.1----
2024-04-20 06:30 pm SW 11.1 15.0----29.82- 49.6 47.1----
2024-04-20 06:24 pmSSW 12.0 14.0----29.81- 50.0 46.8----
2024-04-20 06:18 pmSSW 11.1 13.0----29.81- 50.2 46.8----
2024-04-20 06:12 pm SW 11.1 13.0----29.81- 51.6 46.9----
2024-04-20 06:06 pm SW 12.0 14.0----29.81- 51.4 46.9----
2024-04-20 06:00 pm-------29.81-0.04 51.4 46.9----
2024-04-20 05:54 pm-------29.80- 51.8 46.9----
2024-04-20 05:48 pmSSW 9.9 11.1----29.81- 52.5 47.1----
2024-04-20 05:42 pmSSW 8.9 9.9----29.81- 52.9 47.1----
2024-04-20 05:36 pmSSW 8.9 11.1----29.81- 52.3 47.1----
2024-04-20 05:30 pmSSW 8.9 12.0----29.81- 52.2 47.1----
2024-04-20 05:24 pmSSW 9.9 11.1----29.82- 51.6 47.3----
2024-04-20 05:18 pmSSW 8.9 11.1----29.82- 51.4 47.5----
2024-04-20 05:12 pmSSW 8.9 11.1----29.82- 51.3 47.7----
2024-04-20 05:06 pmSSW 8.9 11.1----29.82- 51.8 47.8----
2024-04-20 05:00 pmSSW 9.9 11.1----29.81-0.05 51.4 48.2----
2024-04-20 04:54 pmSSW 8.9 11.1----29.81- 50.9 48.4----
2024-04-20 04:48 pmSSW 9.9 11.1----29.81-- 48.6----
2024-04-20 04:42 pmSSW 9.9 12.0----29.81-- 48.6----
2024-04-20 04:36 pm SW 8.9 9.9----29.81-- 48.6----
2024-04-20 04:30 pm SW 7.0 8.0----29.81- 50.9 48.7----
2024-04-20 04:24 pmSSW 5.1 8.0----29.81- 51.8 48.7----
2024-04-20 04:18 pmSSW 7.0 8.9------ 52.2 48.7----
2024-04-20 04:12 pm S 7.0 8.9------ 52.9 48.7----
2024-04-20 04:06 pm S 8.0 8.9------ 52.3 48.7----
2024-04-20 04:00 pm-------29.81-0.08 52.2 48.7----
2024-04-20 03:54 pm-------29.82- 51.4 48.7----
2024-04-20 03:48 pm S 6.0 7.0----29.82- 50.7 48.7----
2024-04-20 03:42 pmSSW 6.0 7.0----29.82- 50.4 48.7----
2024-04-20 03:36 pmSSW 6.0 7.0----29.83- 50.5 48.7----
2024-04-20 03:30 pmSSW 5.1 5.1----29.83- 50.7 48.7----
2024-04-20 03:24 pmSSW 5.1 6.0----29.83- 50.5 48.7----
2024-04-20 03:18 pmSSW 4.1 6.0----29.83- 50.5 48.7----
2024-04-20 03:12 pmSSW 5.1 5.1----29.84- 50.7 48.7----
2024-04-20 03:06 pmSSW 4.1 5.1----29.84- 50.9 48.6----
2024-04-20 03:00 pmSSW 2.9 4.1----29.84-0.06------
2024-04-20 02:54 pm SW 2.9 5.1----29.85-------
2024-04-20 02:48 pmSSW 2.9 5.1----29.85- 51.1 48.6----
2024-04-20 02:42 pmSSW 4.1 5.1----29.85- 50.9 48.6----
2024-04-20 02:36 pmSSW 4.1 5.1----29.85- 51.1 48.6----
2024-04-20 02:30 pmSSW 2.9 2.9------ 51.6 48.6----
2024-04-20 02:24 pm SW 2.9 2.9------ 51.3 48.6----
2024-04-20 02:18 pmWSW 1.9 1.9----29.86- 51.1 48.6----
2024-04-20 02:12 pm SW 1.9 2.9----29.86- 50.7 48.6----
2024-04-20 02:06 pm SW 1.9 2.9----29.86- 50.5 48.6----
2024-04-20 02:00 pm W 2.9 2.9----29.87-0.05 50.4 48.6----
2024-04-20 01:54 pmWSW 2.9 2.9----29.87- 49.8 48.6----
2024-04-20 01:48 pm SW 2.9 4.1----29.87- 49.5 48.6----
2024-04-20 01:42 pm SW 1.9 2.9----29.87- 49.3 48.6----
2024-04-20 01:36 pmSSW 1.9 4.1----29.87- 49.1 48.6----
2024-04-20 01:30 pm S 2.9 4.1----29.87- 49.1 48.6----
2024-04-20 01:24 pm S 4.1 5.1----29.88- 48.7 48.6----
2024-04-20 01:18 pm S 4.1 4.1----29.88- 48.7 48.6----
2024-04-20 01:12 pmSSW 4.1 4.1----29.89- 48.4 48.6----
2024-04-20 01:06 pmSSW 4.1 4.1----29.89- 48.2 48.6----
2024-04-20 01:00 pmSSW 2.9 4.1----29.89-0.06 48.0 48.6----
2024-04-20 12:54 pm SW 4.1 5.1----29.89- 48.0 48.6----
2024-04-20 12:48 pmSSW 5.1 6.0----29.89- 47.8 48.6----
2024-04-20 12:42 pmSSW 5.1 8.0----29.90- 47.7 48.6----
2024-04-20 12:36 pmSSW 7.0 8.9----29.90- 47.5 48.6----
2024-04-20 12:30 pmSSW 8.0 8.9----29.90- 47.3 48.6----
2024-04-20 12:24 pmSSW 7.0 8.9----29.90- 46.9 48.6----
2024-04-20 12:18 pmSSW 6.0 8.0----29.90- 47.1 48.6----
2024-04-20 12:12 pm SW 7.0 8.0----29.90- 47.1 48.6----
2024-04-20 12:06 pmSSW 6.0 8.0----29.90- 47.3 48.6----
2024-04-20 12:00 pmSSW 7.0 8.9----29.91-0.06 46.9 48.6----
2024-04-20 11:54 amSSW 8.0 8.9----29.91- 46.9 48.6----
2024-04-20 11:48 amSSW 7.0 8.0----29.91- 46.9 48.6----
2024-04-20 11:42 amSSW 6.0 8.0----29.92- 46.9 48.4----
2024-04-20 11:36 am S 6.0 8.0----29.91- 47.1 48.4----
2024-04-20 11:30 am S 6.0 8.9----29.91- 46.9 48.4----
2024-04-20 11:24 amSSW 8.0 8.9----29.93- 47.1 48.4----
2024-04-20 11:18 amSSW 8.0 8.0----29.93- 46.9 48.4----
2024-04-20 11:12 amSSW 7.0 8.0----29.93- 46.8 48.6----
2024-04-20 11:06 am S 2.9 2.9----29.91- 46.9 48.6----
2024-04-20 11:00 am S 2.9 5.1----29.92-0.06 46.9 48.4----
2024-04-20 10:54 amSSW 5.1 6.0----29.93- 46.4 48.4----
2024-04-20 10:48 amSSW 5.1 7.0----29.93- 46.6 48.6----
2024-04-20 10:42 amSSW 6.0 8.9----29.94- 46.4 48.6----
2024-04-20 10:36 am SW 8.9 9.9----29.95- 46.4 48.6----
2024-04-20 10:30 am SW 7.0 8.0----29.95- 46.6 48.6----
2024-04-20 10:24 amSSW 5.1 6.0----29.94- 46.4 48.6----
2024-04-20 10:18 amSSW 5.1 7.0----29.95- 46.4 48.6----
2024-04-20 10:12 amSSW 5.1 6.0----29.94- 46.2 48.6----
2024-04-20 10:06 am S 5.1 6.0----29.95- 46.4 48.4----
2024-04-20 10:00 am S 5.1 6.0----29.95-0.03 46.4 48.4----
2024-04-20 09:54 am S 4.1 7.0----29.95- 46.2 48.4----
2024-04-20 09:48 am S 5.1 6.0----29.95-- 48.4----
2024-04-20 09:42 am S 5.1 8.9----29.96-- 48.4----
2024-04-20 09:36 amSSW 8.9 11.1----29.98-- 48.4----
2024-04-20 09:30 amSSW 8.9 8.9----29.98- 45.9 48.4----
2024-04-20 09:24 am S 6.0 8.0----29.96- 45.9 48.4----
2024-04-20 09:18 am S 5.1 6.0----29.96- 45.9 48.4----
2024-04-20 09:12 am S 5.1 7.0----29.96- 45.7 48.4----
2024-04-20 09:06 am S 5.1 6.0----29.96- 45.9 48.4----
2024-04-20 09:00 am S 5.1 6.0----29.96+0.00 45.7 48.4----
2024-04-20 08:54 am S 5.1 7.0----29.96- 45.7 48.4----
2024-04-20 08:48 am S 5.1 6.0----29.96- 45.9 48.4----
2024-04-20 08:42 am S 5.1 6.0----29.96- 45.9 48.2----
2024-04-20 08:36 amSSE 5.1 7.0----29.96- 45.7 48.2----
2024-04-20 08:30 amSSE 6.0 6.0----29.96- 45.7 48.2----
2024-04-20 08:24 am S 5.1 6.0----29.97- 45.7 48.2----
2024-04-20 08:18 am S 5.1 5.1----29.97- 45.7 48.2----
2024-04-20 08:12 am S 4.1 6.0----29.97- 45.7 48.2----
2024-04-20 08:06 am S 5.1 7.0----29.97- 45.7 48.2----
2024-04-20 08:00 am S 5.1 6.0----29.97-0.02 45.7 48.2----
2024-04-20 07:54 am S 6.0 7.0----29.97- 45.7 48.0----
2024-04-20 07:48 am S 6.0 7.0----29.97- 45.7 47.8----
2024-04-20 07:42 am S 6.0 8.0----29.98- 45.5 47.8----
2024-04-20 07:36 amSSE 6.0 7.0----29.97- 45.5 47.8----
2024-04-20 07:30 am S 5.1 6.0----29.98- 45.7 48.0----
2024-04-20 07:24 amSSE 5.1 6.0----29.98- 45.7 48.0----
2024-04-20 07:18 amSSE 5.1 6.0----29.98- 45.7 48.0----
2024-04-20 07:12 am S 5.1 6.0----29.98- 45.9 48.0----
2024-04-20 07:06 amSSE 5.1 5.1----29.98- 45.7 48.0----
2024-04-20 07:00 amSSE 5.1 5.1----29.98-0.03 45.7 48.0----
2024-04-20 06:54 am S 5.1 6.0----29.98- 45.7 48.0----
2024-04-20 06:48 am S 6.0 6.0----29.98- 45.7 48.0----
2024-04-20 06:42 amSSE 6.0 6.0----29.97- 45.7 48.0----
2024-04-20 06:36 amSSE 4.1 4.1----29.98- 45.7 48.0----
2024-04-20 06:30 amSSE 1.9 4.1----29.98-- 48.2----
2024-04-20 06:24 am S 4.1 5.1----29.97-- 48.2----
2024-04-20 06:18 am SE 4.1 5.1----29.96- 45.7 48.4----
2024-04-20 06:12 am SE 4.1 6.0----29.96- 45.7 48.2----
2024-04-20 06:06 am SE 5.1 6.0----29.96- 45.7 48.0----
2024-04-20 06:00 amSSE 4.1 7.0----29.96-0.05- 48.2----
2024-04-20 05:54 am SE 5.1 5.1----29.96-- 48.0----
2024-04-20 05:48 am SE 4.1 5.1----29.97- 45.9 47.7----
2024-04-20 05:42 amSSE 5.1 6.0----29.97- 45.9 47.7----
2024-04-20 05:36 am SE 5.1 6.0----29.98- 45.7 47.8----
2024-04-20 05:30 amSSE 5.1 6.0----29.98- 45.9 48.0----
2024-04-20 05:24 amSSE 4.1 5.1----29.99- 45.9 48.2----
2024-04-20 05:18 am S 4.1 5.1----29.99- 46.0 48.4----
2024-04-20 05:12 am S 4.1 5.1----29.99- 45.9 48.4----
2024-04-20 05:06 am S 4.1 5.1----29.99- 45.9 48.6----
2024-04-20 05:00 am S 4.1 5.1----29.99-0.04 45.9 48.7----
2024-04-20 04:54 am S 5.1 5.1----29.99- 45.9 48.9----
2024-04-20 04:48 am S 5.1 5.1----29.99- 45.9 48.9----
2024-04-20 04:42 am S 4.1 5.1----30.00- 46.0 48.9----
2024-04-20 04:36 am S 4.1 5.1----29.99- 45.9 48.9----
2024-04-20 04:30 am S 4.1 6.0----30.00-- 49.1----
2024-04-20 04:24 am S 5.1 6.0----30.00-- 49.1----
2024-04-20 04:18 am S 4.1 5.1----30.00- 45.9 49.1----
2024-04-20 04:12 am S 4.1 5.1----30.00- 45.9 49.1----
2024-04-20 04:06 am S 4.1 5.1----30.01- 45.9 49.1----
2024-04-20 04:00 am-------30.01-0.04- 49.1----
2024-04-20 03:54 am-------30.01-- 49.1----
2024-04-20 03:48 am S 2.9 5.1----30.01- 45.7 49.1----
2024-04-20 03:42 amSSW 4.1 5.1----30.01- 45.9 49.1----
2024-04-20 03:36 amSSW 5.1 6.0----30.01- 45.7 49.1----
2024-04-20 03:30 amSSW 4.1 5.1----30.01- 45.7 49.1----
2024-04-20 03:24 amSSW 4.1 5.1----30.01- 45.7 49.1----
2024-04-20 03:18 amSSW 4.1 5.1----30.01- 45.9 49.1----
2024-04-20 03:12 amSSW 5.1 6.0----30.01- 45.9 49.1----
2024-04-20 03:06 am S 5.1 6.0----30.01- 45.9 49.1----
2024-04-20 03:00 amSSW 4.1 5.1----30.01-0.06 46.0 49.1----
2024-04-20 02:54 am S 4.1 6.0----30.01- 46.0 49.1----
2024-04-20 02:48 am S 5.1 6.0----30.01- 46.0 49.1----
2024-04-20 02:42 am S 5.1 6.0----30.01- 45.9 49.1----
2024-04-20 02:36 am S 5.1 7.0----30.01- 46.0 49.1----
2024-04-20 02:30 am S 5.1 7.0----30.01- 45.9 49.1----
2024-04-20 02:24 am S 6.0 7.0----30.01- 45.9 49.1----
2024-04-20 02:18 am S 4.1 7.0----30.02- 45.9 49.1----
2024-04-20 02:12 am S 6.0 7.0----30.02- 45.9 49.1----
2024-04-20 02:06 am S 5.1 7.0----30.03- 45.9 49.1----
2024-04-20 02:00 am S 6.0 8.0----30.03-0.06 46.0 49.3----
2024-04-20 01:54 am S 7.0 8.0----30.03- 46.0 49.3----
2024-04-20 01:48 am S 7.0 8.9----30.03- 46.0 49.3----
2024-04-20 01:42 am S 7.0 8.9----30.03- 46.0 49.3----
2024-04-20 01:36 am S 8.0 8.9----30.03- 46.0 49.3----
2024-04-20 01:30 am S 7.0 8.9----30.04- 46.0 49.3----
2024-04-20 01:24 am S 6.0 8.9----30.04- 46.0 49.3----
2024-04-20 01:18 am S 7.0 8.0----30.04- 46.0 49.3----
2024-04-20 01:12 am S 6.0 11.1----30.04- 46.0 49.3----
2024-04-20 01:06 am S 8.9 9.9----30.04- 46.0 49.3----
2024-04-20 01:00 am S 8.0 9.9----30.04-0.06 46.2 49.3----
2024-04-20 12:54 am S 8.9 12.0----30.04- 46.0 49.3----
2024-04-20 12:48 am S 8.0 12.0----30.05- 46.0 49.3----
2024-04-20 12:42 am S 9.9 13.0----30.05- 46.2 49.3----
2024-04-20 12:36 am S 9.9 12.0----30.05- 46.2 49.3----
2024-04-20 12:30 amSSE 9.9 12.0----30.05- 46.2 49.3----
2024-04-20 12:24 amSSE 7.0 8.9----30.06- 46.2 49.3----
2024-04-20 12:18 am S 6.0 8.0----30.06- 46.2 49.3----
2024-04-20 12:12 am S 6.0 8.9----30.06- 46.0 49.3----
2024-04-20 12:06 amSSE 6.0 8.0----30.06- 45.9 49.3----
2024-04-20 12:00 amSSE 7.0 8.0----30.07-0.04 45.9 49.3----
2024-04-19 11:54 pm S 6.0 7.0----30.07- 45.9 49.3----
2024-04-19 11:48 pm S 6.0 7.0----30.08- 45.9 49.3----
2024-04-19 11:42 pm S 5.1 8.0----30.07- 45.9 49.3----
2024-04-19 11:36 pm S 7.0 8.0----30.08- 45.9 49.3----
2024-04-19 11:30 pm S 7.0 7.0----30.08- 45.9 49.3----
2024-04-19 11:24 pm S 6.0 7.0----30.08- 45.9 49.3----
2024-04-19 11:18 pm S 5.1 7.0----30.08- 45.9 49.3----
2024-04-19 11:12 pm S 6.0 7.0----30.08- 45.7 49.3----
2024-04-19 11:06 pmSSE 5.1 5.1----30.08- 45.7 49.3----
2024-04-19 11:00 pmSSE 4.1 5.1----30.09+0.00 45.7 49.3----
2024-04-19 10:54 pmSSE 4.1 5.1----30.09- 45.7 49.3----
2024-04-19 10:48 pm SE 2.9 4.1----30.09- 45.7 49.3----
2024-04-19 10:42 pmSSE 4.1 4.1----30.09- 45.7 49.3----
2024-04-19 10:36 pmSSE 2.9 5.1----30.09- 45.7 49.3----
2024-04-19 10:30 pmSSE 4.1 5.1----30.09- 45.7 49.3----
2024-04-19 10:24 pm SE 4.1 6.0----30.10- 45.7 49.3----
2024-04-19 10:18 pm SE 4.1 5.1----30.10- 45.7 49.3----
2024-04-19 10:12 pmSSE 5.1 6.0----30.10- 45.9 49.3----
2024-04-19 10:06 pm S 4.1 6.0----30.11- 45.9 49.3----
2024-04-19 10:00 pm S 5.1 6.0----30.10-0.01 45.9 49.3----
2024-04-19 09:54 pm SE 4.1 4.1----30.11- 45.9 49.3----
2024-04-19 09:48 pm SE 2.9 5.1----30.11- 45.9 49.3----
2024-04-19 09:42 pmSSE 4.1 6.0----30.10- 45.9 49.1----
2024-04-19 09:36 pmSSE 6.0 9.9----30.10- 45.9 49.1----
2024-04-19 09:30 pmSSE 7.0 8.0----30.10- 45.9 49.1----
2024-04-19 09:24 pmSSE 5.1 7.0----30.10- 45.9 49.1----
2024-04-19 09:18 pm SE 6.0 8.9----30.10- 45.9 49.1----
2024-04-19 09:12 pm SE 7.0 8.0----30.11- 46.0 49.1----
2024-04-19 09:06 pmSSE 5.1 8.9----30.11- 46.0 49.1----
2024-04-19 09:00 pm SE 8.0 9.9----30.11+0.00 45.9 48.9----
2024-04-19 08:54 pm SE 8.0 8.9----30.11- 45.9 48.9----